Torna al catalogo

CZ-6A DEB

AttivoSSO
NORAD 56684·DEBRIS·🇨🇳 China

Lanciato Nov 11, 2022 da Taiyuan Satellite Launch Center

Loading…

Prossimi Passaggi (prossime 24 ore)

TLE

AggiornatoSource: Space-Track

Epoca: Sep 12, 2026, 04:57 UTC

1 56684U 22151AHL 26255.20637872  .00000933  00000-0  61849-3 0  9991
2 56684  98.9332 232.4287 0102624 164.6023 195.8305 14.01329588171001

Traccia CZ-6A DEB in tempo reale con AllMySat

Download on the App Store